Grand Junction, CO

12:45 PM MDT on August 23, 2019 (GMT -0600)
Walker

Weather History for KGJT - May, 2019

Change the Weather History Date:

Friday, May 31, 2019

  Actual Average Record
Temperature  
Mean Temperature 47 °F 57 °F  
Max Temperature 56 °F 71 °F 88 °F (2001)
Min Temperature 37 °F 43 °F 24 °F (2011)
Degree Days  
Heating Degree Days 18 9  
Month to date heating degree days 18 9  
Since 1 July heating degree days 5415 5443  
Cooling Degree Days 0 0  
Month to date cooling degree days 0 0  
Year to date cooling degree days 1 3  
Growing Degree Days 16 (Base 50)    
Moisture  
Dew Point 36 °F    
Average Humidity 65    
Maximum Humidity 100    
Minimum Humidity 30    
Precipitation  
Precipitation 0.03 in 0.03 in 0.41 in (1973)
Month to date precipitation 0.03 0.03  
Year to date precipitation 5.08 2.98  
Snow  
Snow 0.00 in 0.00 in 0.40 in (2008)
Month to date snowfall 0.0 0.0  
Since 1 July snowfall 17.4 19.0  
Snow Depth 0.00 in    
Sea Level Pressure  
Sea Level Pressure 29.90 in    
Wind  
Wind Speed 7 mph (East)    
Max Wind Speed 21 mph    
Max Gust Speed 33 mph    
Visibility 10 miles    
Events      
T = Trace of Precipitation, MM = Missing Value Source: NWS Daily Summary

Daily Weather History Graph

Daily Weather History Graph

Search for Another Location

Airport or City:

Astronomy

May. 31, 2019 Rise Set
Actual Time 5:50 AM MDT 8:33 PM MDT
Civil Twilight 5:19 AM MDT 9:05 PM MDT
Nautical Twilight 4:39 AM MDT 9:44 PM MDT
Astronomical Twilight 3:55 AM MDT 10:29 PM MDT
Moon 4:24 AM MDT (5/31) 5:47 PM MDT (5/31)
Length of Visible Light 15h 45m
Length of Day
14h 43m
Waning Crescent, 8% of the Moon is Illuminated
May 31
Waning Crescent
Jun 3
New
Jun 10
First Quarter
Jun 17
Full
Jun 25
Last Quarter

Hourly Weather History & Observations

Time (MDT) Temp. Dew Point Humidity Pressure Visibility Wind Dir Wind Speed Gust Speed Precip Events Conditions
12:53 AM 59.0 °F 37.9 °F 46% 29.91 in 10.0 mi East 10.4 mph - N/A   Clear
1:53 AM 59.0 °F 36.0 °F 42% 29.91 in 10.0 mi ESE 11.5 mph - N/A   Clear
2:53 AM 54.0 °F 37.0 °F 53% 29.93 in 10.0 mi ESE 8.1 mph - N/A   Clear
3:53 AM 55.9 °F 36.0 °F 47% 29.94 in 10.0 mi SE 12.7 mph - N/A   Clear
4:53 AM 52.0 °F 37.0 °F 57% 29.96 in 10.0 mi ESE 10.4 mph - N/A   Clear
5:53 AM 51.1 °F 37.0 °F 59% 29.97 in 10.0 mi East 5.8 mph - N/A   Clear
6:53 AM 55.0 °F 37.9 °F 53% 29.97 in 10.0 mi East 11.5 mph - N/A   Partly Cloudy
7:53 AM 61.0 °F 36.0 °F 39% 29.98 in 10.0 mi ESE 17.3 mph 23.0 mph N/A   Clear
8:53 AM 63.0 °F 39.0 °F 41% 29.99 in 10.0 mi SE 12.7 mph - N/A   Scattered Clouds
9:53 AM 66.9 °F 37.9 °F 34% 29.97 in 10.0 mi SE 6.9 mph - N/A   Clear
10:53 AM 69.1 °F 37.0 °F 31% 29.96 in 10.0 mi SE 4.6 mph - N/A   Clear
11:53 AM 73.9 °F 37.0 °F 26% 29.94 in 10.0 mi South 5.8 mph - N/A   Clear
12:53 PM 75.9 °F 37.9 °F 25% 29.91 in 10.0 mi ESE 5.8 mph - N/A   Clear
1:53 PM 75.9 °F 37.0 °F 24% 29.89 in 10.0 mi Variable 6.9 mph - N/A   Clear
2:53 PM 75.0 °F 37.9 °F 26% 29.90 in 10.0 mi NW 9.2 mph - N/A   Mostly Cloudy
3:53 PM 79.0 °F 37.9 °F 23% 29.86 in 10.0 mi North - - N/A   Partly Cloudy
3:55 PM 79.0 °F 37.0 °F 22% 30.03 in 10.0 mi West 5.8 mph - N/A   Partly Cloudy
4:53 PM 79.0 °F 35.1 °F 20% 29.84 in 10.0 mi West 5.8 mph - N/A   Clear
5:53 PM 79.0 °F 33.1 °F 19% 29.83 in 10.0 mi WNW 8.1 mph - N/A   Clear
6:53 PM 78.1 °F 32.0 °F 19% 29.81 in 10.0 mi NW 9.2 mph - N/A   Clear
7:53 PM 75.9 °F 32.0 °F 20% 29.81 in 10.0 mi NNW 9.2 mph - N/A   Clear
8:53 PM 70.0 °F 32.0 °F 25% 29.83 in 10.0 mi North 5.8 mph - N/A   Partly Cloudy
9:53 PM 66.0 °F 33.1 °F 29% 29.85 in 10.0 mi NNE 9.2 mph - N/A   Clear
10:53 PM 62.1 °F 36.0 °F 38% 29.86 in 10.0 mi NE 8.1 mph - N/A   Clear
11:53 PM 68.0 °F 37.0 °F 32% 29.82 in 10.0 mi Variable 4.6 mph - N/A   Clear